Regional Weather Roundup
Issued by NWS

Home | Current Version | Previous Version | Text Only | Print | Product List | Glossary Off
Versions: 1 2 3 4 5 6 7 8 9 10 11 12 13 14 15 16 17 18 19 20 21 22 23 24 25 26 27 28 29 30 31 32 33 34 35 36 37 38 39 40 41 42 43 44 45 46 47 48 49 50

000
ASUS43 KDTX 211010
RWRMI
MICHIGAN HOURLY REGIONAL WEATHER ROUNDUP
NATIONAL WEATHER SERVICE DETROIT/PONTIAC MI
500 AM EST SUN DEC 21 2014

NOTE: "FAIR" INDICATES FEW OR NO CLOUDS BELOW 12,000 FEET WITH NO
SIGNIFICANT WEATHER AND/OR OBSTRUCTION TO VISIBILITY.

MIZ047>049-052>055-059>063-066>070-074>076-081>083-211100-
SOUTHEAST LOWER MICHIGAN

CITY           SKY/WX    TMP DP  RH WIND       PRES   REMARKS
ADRIAN         CLOUDY    26  22  84 CALM      30.29F FOG
ALMA           CLOUDY    29  26  90 S6        30.26F FOG
ANN ARBOR      CLOUDY    26  24  92 CALM      30.28F
BAD AXE        CLEAR     15  13  95 CALM      30.28S
DETROIT CITY   MOCLDY    28  20  71 CALM      30.30S
DETROIT        CLOUDY    28  23  80 CALM      30.30S
FLINT          CLOUDY    27  23  85 S3        30.28S
GROSSE ILE     CLOUDY    30  25  80 CALM      30.29S
HILLSDALE      CLOUDY    29  27  93 CALM      30.25S FOG
HOWELL         CLOUDY    26  24  91 CALM      30.26F FOG

CITY           SKY/WX    TMP DP  RH WIND       PRES   REMARKS
JACKSON        CLOUDY    28  23  81 S3        30.26F
LAMBERTVILLE   MOCLDY    23  21  93 CALM      30.30S FOG
LANSING        CLOUDY    29  23  78 S6        30.27S
LAPEER         NOT AVBL
MASON          CLOUDY    28  24  86 CALM      30.26F
MONROE         CLOUDY    25  25 100 CALM      30.28F FOG
MT. CLEMENS    CLOUDY    27  22  82 S1        30.28S
PONTIAC        CLOUDY    24  21  88 CALM      30.27S
PORT HOPE        N/A     22  18  85 SW6       30.27S
PORT HURON     CLOUDY    23  21  93 CALM      30.29S
TRI CITIES     CLOUDY    28  24  85 S5        30.28S
YPSILANTI      CLOUDY    29  23  78 CALM      30.29F HAZE
$$
MIZ043>046-050>051-056>058-064>065-071>073-077>080-211100-
SOUTHWEST LOWER MICHIGAN

CITY           SKY/WX    TMP DP  RH WIND       PRES   REMARKS
BATTLE CREEK   CLOUDY    30  27  88 S5        30.26S FOG
BENTON HARBOR  CLOUDY    30  26  85 S5        30.25F
BIG RAPIDS     CLOUDY    30  30 100 CALM      30.22S FOG
COLDWATER      CLOUDY    30  28  92 MISG      30.26F FOG
HOLLAND        CLOUDY    33  27  78 S7        30.25F
GRAND RAPIDS   CLOUDY    31  26  82 S8        30.25F HAZE
KALAMAZOO      CLOUDY    30  27  88 S5        30.26F FOG
MARSHALL       CLOUDY    28  26  91 S3        30.26S FOG
MUSKEGON       MIX PCPN  32  29  88 SE6       30.24F FOG
$$
MIZ016>042-211100-
NORTHERN LOWER MICHIGAN

CITY           SKY/WX    TMP DP  RH WIND       PRES   REMARKS
ALPENA         MOCLDY    16  13  88 CALM      30.26F
BEAVER ISLAND  CLOUDY    32  26  77 SE5       30.20F
BELLAIRE       CLOUDY    27  24  89 CALM      30.24F
CADILLAC       CLOUDY    27  26  96 S3        30.20S FOG
CHARLEVOIX     CLOUDY    27  23  84 SE5       30.25F
FRANKFORT      CLOUDY    30  28  90 SE6       30.21F
GAYLORD        CLOUDY    22  19  89 SE3       30.20F
GRAYLING       CLOUDY    22  20  94 CALM      30.23S
HARBOR SPRINGS CLOUDY    24  20  85 NE3       30.23S
HOUGHTON LAKE  CLOUDY    25  22  88 S5        30.23S FOG
MANISTEE       CLOUDY    28  27  93 SE3       30.22F
OSCODA         CLOUDY    17  15  93 CALM      30.26S
PELLSTON       CLOUDY    23  21  92 CALM      30.24S
TRAVERSE CITY  CLOUDY    29  23  78 CALM      30.22F
$$
MIZ007>008-015-211100-
EASTERN UPPER MICHIGAN

CITY           SKY/WX    TMP DP  RH WIND       PRES   REMARKS
KINROSS        CLOUDY    25  25 100 S5        30.22F
MACKINAC ISLAN CLOUDY    28  22  77 S5        30.22F
NEWBERRY       CLOUDY    26  24  93 S7        30.19F
S. S. MARIE    CLOUDY    24  19  81 CALM      30.22F
$$
MIZ004>006-011>014-085-211100-
CENTRAL UPPER MICHIGAN

CITY           SKY/WX    TMP DP  RH WIND       PRES   REMARKS
MANISTIQUE     MIX PCPN  28  28  97 CALM      30.19F
ESCANABA       CLOUDY    28  23  80 CALM      30.18S
MENOMINEE      CLOUDY    28  27  93 S5        30.17F
SAWYER-GWINN   CLOUDY    26  24  91 S8        30.12F
$$
MIZ001>003-009>011-084-211100-
WESTERN UPPER MICHIGAN

CITY           SKY/WX    TMP DP  RH WIND       PRES   REMARKS
IRON MOUNTAIN  CLOUDY    26  23  88 SE6       30.11F FOG
HOUGHTON       PTCLDY    27  24  89 S5        30.06F
COPPER HARBOR    N/A     31  26  82 CALM      30.10F
IRONWOOD       CLOUDY    30  27  86 S9G16     30.01F
$$

ABBREVIATIONS USED IN REMARKS
   TC - TEMPERATURE IN CELSIUS
  WCI - WIND CHILL INDEX
   HX - HEAT INDEX
  VSB - VISIBILITY




USA.gov is the U.S. government's official web portal to all federal, state and local government web resources and services.